Date String (YYYY-MM-DD hh:mm:ss) UTC,Instrument flags,absolute air pressure of the measurement (hPa),sample flow rate (lpm),inlet stack bypass flow (lpm),air temperature of the measurement (°C),ambient temperature measured by the external sensor (°C),aerosol sample conditioner tube jacket temperature (°C),OPC LED temperature (°C),internal box temperature (°C),relative humidity of the measurement (%),span deviation,mass concentration of particles derived from Lorenz-Mie calculation of OPC scattering (μg/m³),mass concentration of particles derived from Lorenz-Mie calculation of OPC scattering (μg/m³),mass concentration of particles derived from Lorenz-Mie calculation of OPC scattering (μg/m³)
DateTimeUTC,F1_M11,P_M11,Q1_M11,Q2_M11,T1_M11,T2_M11,T3_M11,T4_M11,T5_M11,U1_M11,ZSPAN_M11,X2_M11,X0_M11,X1_M11
2023-09-16 06:00:00,SystemResetWarning,0837.2,5.00,000.00,028.2,026.6,000.0,036.7,029.7,21.2,0000.0,0003.99,0006.69,0003.54
2023-09-16 06:01:00,SystemResetWarning,0837.2,5.00,000.00,028.2,026.6,000.0,036.7,029.7,21.6,0000.0,0004.02,0006.84,0003.54
2023-09-16 06:02:00,SystemResetWarning,0837.2,5.00,000.00,028.2,026.6,000.0,036.7,029.7,21.4,0000.0,0004.04,0006.96,0003.54
2023-09-16 06:03:00,SystemResetWarning,0837.2,5.00,000.00,028.2,026.6,000.0,036.7,029.7,21.1,0000.0,0004.08,0007.24,0003.55
2023-09-16 06:04:00,SystemResetWarning,0837.2,4.99,000.00,028.1,026.6,000.0,036.7,029.7,21.1,0000.0,0004.07,0007.12,0003.54
2023-09-16 06:05:00,SystemResetWarning,0837.2,5.00,000.00,028.1,026.5,000.0,036.6,029.7,21.0,0000.0,0004.06,0006.91,0003.54
2023-09-16 06:06:00,SystemResetWarning,0837.2,5.00,000.00,028.1,026.6,000.0,036.6,029.6,21.0,0000.0,0004.05,0006.86,0003.54
2023-09-16 06:07:00,SystemResetWarning,0837.2,5.00,000.00,028.1,026.5,000.0,036.6,029.6,21.0,0000.0,0004.05,0006.93,0003.53
2023-09-16 06:08:00,SystemResetWarning,0837.2,5.00,000.00,028.1,026.5,000.0,036.6,029.6,21.0,0000.0,0004.03,0006.92,0003.53
2023-09-16 06:09:00,SystemResetWarning,0837.2,5.00,000.00,028.1,026.5,000.0,036.6,029.6,20.9,0000.0,0003.99,0006.69,0003.52
2023-09-16 06:10:00,SystemResetWarning,0837.2,5.01,000.00,028.1,026.5,000.0,036.6,029.6,20.8,0000.0,0003.98,0006.59,0003.52
2023-09-16 06:11:00,SystemResetWarning,0837.2,5.00,000.00,028.1,026.5,000.0,036.6,029.6,20.7,0000.0,0003.96,0006.44,0003.52
2023-09-16 06:12:00,SystemResetWarning,0837.2,5.01,000.00,028.1,026.5,000.0,036.6,029.6,20.6,0000.0,0003.90,0006.74,0003.50
2023-09-16 06:13:00,SystemResetWarning,0837.2,5.00,000.00,028.1,026.5,000.0,036.6,029.6,20.6,0000.0,0003.90,0006.88,0003.51
2023-09-16 06:14:00,SystemResetWarning,0837.2,4.99,000.00,028.1,026.5,000.0,036.6,029.6,20.5,0000.0,0003.86,0006.59,0003.50
2023-09-16 06:15:00,SystemResetWarning,0837.2,4.99,000.00,028.1,026.5,000.0,036.6,029.6,20.5,0000.0,0003.83,0006.48,0003.50
2023-09-16 06:16:00,SystemResetWarning,0837.2,5.00,000.00,028.1,026.5,000.0,036.6,029.6,20.4,0000.0,0003.82,0006.52,0003.50
2023-09-16 06:17:00,SystemResetWarning,0837.2,5.00,000.00,028.1,026.5,000.0,036.6,029.6,20.5,0000.0,0003.82,0006.60,0003.50
2023-09-16 06:18:00,SystemResetWarning,0837.2,5.00,000.00,028.1,026.5,000.0,036.6,029.6,20.7,0000.0,0003.83,0006.63,0003.51
2023-09-16 06:19:00,SystemResetWarning,0837.2,5.01,000.00,028.1,026.5,000.0,036.6,029.5,20.5,0000.0,0003.86,0006.71,0003.52
2023-09-16 06:20:00,SystemResetWarning,0837.2,5.01,000.00,028.1,026.5,000.0,036.6,029.5,20.6,0000.0,0003.88,0007.04,0003.52
2023-09-16 06:21:00,SystemResetWarning,0837.2,5.00,000.00,028.0,026.5,000.0,036.6,029.5,20.6,0000.0,0003.88,0007.13,0003.52
2023-09-16 06:22:00,SystemResetWarning,0837.2,4.99,000.00,028.0,026.5,000.0,036.6,029.5,20.5,0000.0,0003.85,0006.97,0003.51
2023-09-16 06:23:00,SystemResetWarning,0837.1,4.99,000.00,028.0,026.5,000.0,036.5,029.6,20.8,0000.0,0003.87,0006.56,0003.54
2023-09-16 06:24:00,SystemResetWarning,0837.2,5.00,000.00,028.0,026.4,000.0,036.5,029.5,20.7,0000.0,0003.87,0006.17,0003.54
2023-09-16 06:25:00,SystemResetWarning,0837.2,5.00,000.00,028.0,026.4,000.0,036.5,029.5,20.5,0000.0,0003.91,0006.50,0003.55
2023-09-16 06:26:00,SystemResetWarning,0837.2,5.00,000.00,028.0,026.4,000.0,036.5,029.5,20.6,0000.0,0003.94,0006.69,0003.56
2023-09-16 06:27:00,SystemResetWarning,0837.2,5.00,000.00,028.0,026.4,000.0,036.5,029.5,20.5,0000.0,0003.93,0006.59,0003.57
2023-09-16 06:28:00,SystemResetWarning,0837.2,5.01,000.00,028.0,026.4,000.0,036.5,029.5,20.4,0000.0,0003.94,0006.56,0003.57
2023-09-16 06:29:00,SystemResetWarning,0837.2,4.99,000.00,028.0,026.4,000.0,036.5,029.5,20.4,0000.0,0003.93,0006.45,0003.57
2023-09-16 06:30:00,SystemResetWarning,0837.2,4.99,000.00,028.0,026.4,000.0,036.5,029.5,20.3,0000.0,0003.91,0006.37,0003.55
2023-09-16 06:31:00,SystemResetWarning,0837.2,5.01,000.00,028.0,026.4,000.0,036.5,029.5,20.3,0000.0,0003.92,0006.28,0003.56
2023-09-16 06:32:00,SystemResetWarning,0837.2,5.00,000.00,028.0,026.4,000.0,036.5,029.5,20.3,0000.0,0003.92,0006.55,0003.56
2023-09-16 06:33:00,SystemResetWarning,0837.2,5.00,000.00,028.0,026.4,000.0,036.5,029.5,20.3,0000.0,0003.92,0006.56,0003.58
2023-09-16 06:34:00,SystemResetWarning,0837.2,5.01,000.00,027.9,026.3,000.0,036.5,029.4,20.2,0000.0,0003.93,0006.62,0003.56
2023-09-16 06:35:00,SystemResetWarning,0837.2,5.00,000.00,027.9,026.3,000.0,036.5,029.5,20.3,0000.0,0003.94,0006.72,0003.57
2023-09-16 06:36:00,SystemResetWarning,0837.2,5.01,000.00,027.9,026.3,000.0,036.5,029.5,20.2,0000.0,0003.93,0006.61,0003.56
2023-09-16 06:37:00,SystemResetWarning,0837.2,5.00,000.00,027.9,026.3,000.0,036.5,029.5,20.2,0000.0,0003.92,0006.49,0003.56
2023-09-16 06:38:00,SystemResetWarning,0837.2,5.00,000.00,027.9,026.3,000.0,036.4,029.5,20.3,0000.0,0003.97,0006.81,0003.57
2023-09-16 06:39:00,SystemResetWarning,0837.2,4.99,000.00,027.9,026.3,000.0,036.4,029.5,20.3,0000.0,0004.00,0006.99,0003.58
2023-09-16 06:40:00,SystemResetWarning,0837.3,4.99,000.00,027.9,026.2,000.0,036.4,029.5,20.4,0000.0,0004.01,0007.11,0003.59
2023-09-16 06:41:00,SystemResetWarning,0837.2,4.99,000.00,027.9,026.3,000.0,036.4,029.4,20.3,0000.0,0004.02,0007.12,0003.61
2023-09-16 06:42:00,SystemResetWarning,0837.2,5.00,000.00,027.9,026.3,000.0,036.4,029.4,20.3,0000.0,0004.02,0007.17,0003.61
2023-09-16 06:43:00,SystemResetWarning,0837.2,5.01,000.00,027.9,026.3,000.0,036.4,029.4,20.2,0000.0,0004.05,0006.89,0003.61
2023-09-16 06:44:00,SystemResetWarning,0837.2,5.00,000.00,027.9,026.3,000.0,036.4,029.4,20.3,0000.0,0004.05,0006.95,0003.60
2023-09-16 06:45:00,SystemResetWarning,0837.2,5.01,000.00,027.9,026.3,000.0,036.4,029.4,20.3,0000.0,0004.06,0007.04,0003.60
2023-09-16 06:46:00,SystemResetWarning,0837.2,5.01,000.00,027.9,026.2,000.0,036.4,029.4,20.4,0000.0,0004.05,0007.01,0003.59
2023-09-16 06:47:00,SystemResetWarning,0837.2,5.00,000.00,027.9,026.2,000.0,036.4,029.4,20.3,0000.0,0004.00,0007.88,0003.57
2023-09-16 06:48:00,SystemResetWarning,0837.1,5.00,000.00,027.9,026.2,000.0,036.4,029.4,20.3,0000.0,0004.00,0007.84,0003.56
2023-09-16 06:49:00,SystemResetWarning,0837.2,4.99,000.00,027.9,026.2,000.0,036.4,029.4,20.3,0000.0,0003.99,0007.86,0003.55
2023-09-16 06:50:00,SystemResetWarning,0837.2,4.99,000.00,027.9,026.2,000.0,036.4,029.4,20.2,0000.0,0003.97,0008.29,0003.53
2023-09-16 06:51:00,SystemResetWarning,0837.2,5.00,000.00,027.8,026.2,000.0,036.4,029.4,20.3,0000.0,0003.95,0008.42,0003.51
2023-09-16 06:52:00,SystemResetWarning,0837.2,5.00,000.00,027.8,026.2,000.0,036.4,029.4,20.3,0000.0,0003.95,0008.52,0003.50
2023-09-16 06:53:00,SystemResetWarning,0837.2,4.99,000.00,027.8,026.2,000.0,036.4,029.4,20.4,0000.0,0003.95,0008.57,0003.49
2023-09-16 06:54:00,SystemResetWarning,0837.2,5.00,000.00,027.8,026.2,000.0,036.3,029.4,20.2,0000.0,0003.91,0008.51,0003.48
2023-09-16 06:55:00,SystemResetWarning,0837.1,5.01,000.00,027.8,026.2,000.0,036.3,029.4,20.1,0000.0,0003.95,0008.60,0003.48
2023-09-16 06:56:00,SystemResetWarning,0837.1,5.01,000.00,027.8,026.2,000.0,036.3,029.3,20.1,0000.0,0004.00,0008.75,0003.48
2023-09-16 06:57:00,SystemResetWarning,0837.1,4.99,000.00,027.8,026.2,000.0,036.3,029.3,20.1,0000.0,0004.01,0008.91,0003.47
2023-09-16 06:58:00,SystemResetWarning,0837.1,4.99,000.00,027.8,026.2,000.0,036.3,029.4,20.1,0000.0,0004.01,0008.45,0003.48
2023-09-16 06:59:00,SystemResetWarning,0837.1,5.01,000.00,027.8,026.2,000.0,036.3,029.4,20.0,0000.0,0003.99,0008.43,0003.48
